sat.trackr.live / text

‹ back to catalog

STARLINK-32790

NORAD 63048 · 2025-034V

PAYLOAD ACTIVE UNKNOWN

§ Identity

Operator
Country
US
Launch date
2025-02-18
Launch site
AFETR
Launch vehicle
Mass (kg)
RCS (m²)

Purposes: comms

External: N2YO · Heavens-Above · Gunter

§ Orbital elements

Epoch: 2026-09-21T16:46:42.908736Z

Period
93.85 min
Inclination
53.1604°
Eccentricity
0.0001325
Mean motion
15.34401131 rev/d
Perigee alt
461.8 km
Apogee alt
463.6 km
Semi-major
6,840.8 km
B*
3.5029e-4
RAAN
64.3452°
Arg perigee
86.4318°
Mean anomaly
273.6836°
Rev number
8,914

§ Raw data

STARLINK-327901 63048U 25034V   26264.69910774  .00011478  00000+0  35029-3 0  99902 63048  53.1604  64.3452 0001325  86.4318 273.6836 15.34401131 89147

JSON: /api/v1/satellites/63048 · /tle

For live sub-satellite position, see the globe view (requires WebGL).

§ Visibility from observer

Set your observer location to see the next 7 days of passes ≥ 10°. The values pass through the URL so the page stays shareable.

No JS? Fill the form by hand. The geolocation button needs JavaScript.